TimeCST,TemperatureF,Dew PointF,Humidity,Sea Level PressureIn,VisibilityMPH,Wind Direction,Wind SpeedMPH,Gust SpeedMPH,PrecipitationIn,Events,Conditions,WindDirDegrees,DateUTC
12:52 AM,34.0,33.1,96,29.87,1.8,South,6.9,-,0.00,,Light Drizzle,190,2013-01-28 06:52:00
1:52 AM,34.0,34.0,100,29.85,1.8,South,6.9,-,0.01,,Light Drizzle,190,2013-01-28 07:52:00
2:14 AM,35.6,33.8,93,29.82,1.8,South,5.8,-,0.00,,Light Drizzle,180,2013-01-28 08:14:00
2:37 AM,35.6,35.6,100,29.81,1.8,South,3.5,-,0.00,,Light Drizzle,190,2013-01-28 08:37:00
2:52 AM,35.1,35.1,100,29.82,1.8,South,6.9,-,0.01,,Light Drizzle,180,2013-01-28 08:52:00
3:52 AM,35.1,35.1,100,29.81,1.5,Calm,Calm,-,0.01,,Light Drizzle,0,2013-01-28 09:52:00
4:07 AM,35.6,35.6,100,29.78,0.5,Calm,Calm,-,0.01,Rain,Light Rain,0,2013-01-28 10:07:00
4:52 AM,35.1,35.1,100,29.80,0.8,Calm,Calm,-,0.03,,Light Drizzle,0,2013-01-28 10:52:00
5:52 AM,35.1,35.1,100,29.80,0.8,Calm,Calm,-,0.00,,Light Drizzle,0,2013-01-28 11:52:00
6:52 AM,37.9,37.0,97,29.83,0.8,WSW,4.6,-,0.00,,Light Drizzle,250,2013-01-28 12:52:00
7:12 AM,39.2,39.2,100,29.81,1.0,WSW,4.6,-,0.00,,Light Drizzle,250,2013-01-28 13:12:00
7:36 AM,39.2,39.2,100,29.82,2.0,West,9.2,-,0.00,,Overcast,270,2013-01-28 13:36:00
7:50 AM,39.2,39.2,100,29.83,6.0,West,9.2,-,0.00,,Overcast,280,2013-01-28 13:50:00
7:52 AM,39.9,39.0,97,29.85,7.0,West,6.9,-,0.00,,Overcast,270,2013-01-28 13:52:00
8:49 AM,39.2,37.4,93,29.86,10.0,WNW,8.1,-,N/A,,Overcast,290,2013-01-28 14:49:00
8:52 AM,39.0,37.0,93,29.89,10.0,West,6.9,-,N/A,,Overcast,280,2013-01-28 14:52:00
9:52 AM,37.9,35.1,89,29.91,10.0,WNW,9.2,-,N/A,,Overcast,300,2013-01-28 15:52:00
10:48 AM,39.2,35.6,87,29.91,10.0,WNW,8.1,-,N/A,,Overcast,300,2013-01-28 16:48:00
10:52 AM,37.9,34.0,86,29.93,10.0,WNW,6.9,-,N/A,,Overcast,300,2013-01-28 16:52:00
11:16 AM,37.4,33.8,87,29.91,10.0,WNW,10.4,-,N/A,,Overcast,300,2013-01-28 17:16:00
11:27 AM,39.2,35.6,87,29.91,10.0,WNW,6.9,-,N/A,,Overcast,300,2013-01-28 17:27:00
11:52 AM,39.9,34.0,79,29.93,10.0,WNW,9.2,-,N/A,,Mostly Cloudy,290,2013-01-28 17:52:00
12:52 PM,39.0,33.1,79,29.93,10.0,West,6.9,-,N/A,,Mostly Cloudy,280,2013-01-28 18:52:00
1:36 PM,41.0,33.8,76,29.90,10.0,West,8.1,-,N/A,,Mostly Cloudy,270,2013-01-28 19:36:00
1:52 PM,41.0,33.1,73,29.92,10.0,West,4.6,-,N/A,,Mostly Cloudy,270,2013-01-28 19:52:00
2:52 PM,42.1,32.0,67,29.95,10.0,WSW,3.5,-,N/A,,Mostly Cloudy,240,2013-01-28 20:52:00
3:52 PM,42.8,32.0,66,29.94,10.0,Calm,Calm,-,N/A,,Mostly Cloudy,0,2013-01-28 21:52:00
4:52 PM,36.0,32.0,86,29.97,10.0,NE,3.5,-,N/A,,Mostly Cloudy,50,2013-01-28 22:52:00
5:52 PM,34.0,30.9,89,29.98,10.0,ENE,4.6,-,N/A,,Mostly Cloudy,70,2013-01-28 23:52:00
6:52 PM,34.0,32.0,92,29.98,9.0,Calm,Calm,-,N/A,,Mostly Cloudy,0,2013-01-29 00:52:00
7:52 PM,32.0,30.0,92,29.99,7.0,SSE,3.5,-,N/A,,Mostly Cloudy,160,2013-01-29 01:52:00
8:52 PM,32.0,30.9,96,29.96,6.0,ESE,5.8,-,N/A,,Mostly Cloudy,110,2013-01-29 02:52:00
9:52 PM,37.0,35.1,93,29.94,9.0,SE,6.9,-,N/A,,Mostly Cloudy,140,2013-01-29 03:52:00
10:29 PM,37.4,33.8,87,29.89,10.0,ESE,10.4,-,N/A,,Overcast,120,2013-01-29 04:29:00
10:52 PM,37.0,34.0,89,29.88,10.0,ESE,10.4,-,N/A,,Overcast,120,2013-01-29 04:52:00
11:25 PM,37.4,35.6,93,29.85,9.0,SE,9.2,-,0.00,,Light Drizzle,130,2013-01-29 05:25:00
11:52 PM,37.0,35.1,93,29.86,6.0,SE,11.5,-,0.00,,Light Drizzle,140,2013-01-29 05:52:00